Zurück zum Katalog

STARLINK-11104

AktivKommunikationVLEO
NORAD 59763·PAYLOAD·🇺🇸 United States

Gestartet May 14, 2024 von Vandenberg Space Force Base

Loading…

Nächste Überflüge (nächste 24 Stunden)

TLE

AktuellSource: CelesTrak SupGP

Epoche: Sep 15, 2026, 03:24 UTC

1 59763C 24091L   26258.14215278 -.00005801  00000+0 -47785-4 0  2587
2 59763  53.1568 352.0926 0001055  83.5497 225.5971 15.69710158    19

Verfolge STARLINK-11104 in Echtzeit mit AllMySat

Download on the App Store